Regional Weather Roundup
Issued by NWS Charleston, SC

Current Version | Previous Version | Graphics & Text | Print | Product List | Glossary On
Versions: 1 2 3 4 5 6 7 8 9 10 11 12 13 14 15 16 17 18 19 20 21 22 23 24 25 26 27 28 29 30 31 32 33 34 35 36 37 38 39 40 41 42 43 44 45 46 47 48 49 50
000 ASUS42 KCHS 162127 RWRCHS REGIONAL WEATHER ROUNDUP NATIONAL WEATHER SERVICE CHARLESTON SC 500 PM EDT WED AUG 16 2017 NOTE: "FAIR" INDICATES FEW OR NO CLOUDS BELOW 12,000 FEET WITH NO SIGNIFICANT WEATHER AND/OR OBSTRUCTIONS TO VISIBILITY. NOT ALL STATIONS ARE QUALITY CONTROLLED. USE DATA WITH CAUTION... ESPECIALLY DEWPOINT OBSERVATIONS. SCZ027-030-031-034>040-042>050-162200- ...SOUTHEAST SOUTH CAROLINA... CITY SKY/WX TMP DP RH WIND PRES REMARKS N CHARLESTON MOSUNNY 96 73 47 SW6 29.96F HX 105 WATERFRONT PRK N/A N/A N/A N/A S7 29.82F JOHNS ISLAND FAIR 91 82 75 S12 29.97S HX 114 PINOPOLIS N/A 93 79 62 CALM 29.89F HX 110 MONCKS CORNER FAIR 88 75 66 CALM 29.97S HX 97 SUMMERVILLE FAIR 95 73 49 CALM 29.97S HX 105 BEAUFORT MCAS PTSUNNY 92 79 65 S6 29.98F HX 108 BEAUFORT ARPT TSTM 82 79 89 S12G20 29.98R VSB 3/4 HX 93 HILTON HEAD IS MOSUNNY 84 79 84 S14 30.00F HX 96 WALTERBORO MOCLDY 95 72 46 W7 29.97F HX 103 ALLENDALE NOT AVBL ...SOUTHERN MIDLANDS AND PEE DEE... CITY SKY/WX TMP DP RH WIND PRES REMARKS GEORGETOWN MOCLDY 82 79 89 E8 29.98S HX 93 KINGSTREE FAIR 90 75 62 CALM 29.96F HX 100 ORANGEBURG MOSUNNY 96 72 45 W6 29.97F HX 104 BARNWELL FAIR 97 73 46 CALM 29.97F HX 107 AIKEN CLOUDY 91 72 52 NW5 30.02F HX 98 MANNING FAIR 81 79 94 N7G22 29.97F COLUMBIA MOSUNNY 97 68 38 SW7 29.96F HX 102 SUMTER SUNNY 95 72 46 SW8 29.95F HX 103 FLORENCE MOSUNNY 93 75 55 SW5 29.97F HX 104 MYRTLE BEACH MOSUNNY 90 79 70 S13 29.99S HX 105 N MYRTLE BEACH SUNNY 87 77 72 S13 29.97F HX 99 $$ GAZ063-065-086>088-099>101-113>116-118-119-134>141-150-162200- ...SOUTHEAST GEORGIA... CITY SKY/WX TMP DP RH WIND PRES REMARKS SAVANNAH ARPT PTSUNNY 97 74 47 NW7 29.98F HX 108 HUNTER AAF SUNNY 95 76 52 W8 29.96F HX 108 FORT STEWART MOSUNNY 96 71 45 NW7 29.96F HX 104 STATESBORO MOSUNNY 94 70 45 CALM 29.98F HX 100 SYLVANIA PTCLDY 94 79 61 W3 29.99S HX 110 CLAXTON MOCLDY 93 77 58 CALM 29.98F HX 107 ...CSRA...CENTRAL AND FAR SOUTHEAST GEORGIA... CITY SKY/WX TMP DP RH WIND PRES REMARKS THOMSON SUNNY 94 71 46 N8 30.04F HX 101 AUGUSTA-BUSH MOSUNNY 98 73 44 N7 29.97F HX 108 AUGUSTA-DANIEL SUNNY 97 69 40 VRB6 29.99F HX 103 SWAINSBORO MOCLDY 93 73 52 W6 30.00F HX 102 VIDALIA MOSUNNY 95 73 49 W8 30.00S HX 105 EASTMAN CLOUDY 90 61 37 W6 30.03S HAZLEHURST FAIR 96 51 21 W3 29.99S HX 93 ALMA SUNNY 95 72 47 W6 30.00F HX 103 WAYCROSS SUNNY 93 69 45 NW7 30.00S HX 97 JESUP FAIR 97 72 44 NW5 29.99F HX 105 BAXLEY FAIR 91 72 52 W3 30.00S HX 98 BRUNSWICK SUNNY 95 70 43 NW5 30.00S HX 101 SAINT SIMONS SUNNY 89 79 72 S10 29.99F HX 104 $$ SCZ027-028-034-036>038-045-046-048>050-GAZ119-141-162200- ...LAKE AND SUPPLEMENTAL COASTAL OBSERVATIONS... STATION/POSITION TIME TEMP WIND PRES WAVE SWELL AIR SEA DIR/SP/G HT/PER HT/PER/DIR (UTC) (F) (DEG/KT/KT) (MB) (FT/S) (FT/S/D) WINYAH BAY 2045 84 190/ 10 1015.0S LAKE MURRAY 2120 92 200/ 7/ 8 1013.5F ACE BASIN NERRS 2045 92 CALM 1015.0S FORT PULASKI 2100 88 86 170/ 7/ 12 1015.6 SAPELO ISLAND 2100 96 180/ 8 1016.0 $$ ANZ835-935-AMZ111-154-330-350-352-354-370-450-454-472-162200- ...C-MAN AND BUOY OBSERVATIONS... STATION/POSITION TIME TEMP WIND PRES WAVE SWELL AIR SEA DIR/SP/G HT/PER HT/PER/DIR (UTC) (F) (DEG/KT/KT) (MB) (FT/S) (FT/S/D) BUOY 41004 2110 84 85 210/ 12/ 14 1014.9 BUOY 41008 2050 86 86 160/ 10/ 10 1015.5F 1/ 9 FOLLY BEACH CMAN 2100 87 210/ 14/ 15 1015.7F CAPERS NEARSHORE 2108 84 86 210/ 14/ 19 1014.5F FRIPP NEARSHORE 2108 87 200/ 12/ 14 1014.9F STATION/POSITION TIME TEMP WIND PRES WAVE SWELL AIR SEA DIR/SP/G HT/PER HT/PER/DIR (UTC) (F) (DEG/KT/KT) (MB) (FT/S) (FT/S/D) 5E ST. MARYS GA 2100 87 N/A 1/ 9 FRYING PAN BUOY 2110 84 84 150/ 4/ 4 1014.8 BUOY 41025 2050 80 84 10/ 14/ 16 1014.9R 3/ 8 2/100/ 8 CAPE LOOKOUT NC 2100 80 80/ 3/ 4 1014.6F BUOY 41002 2050 85 84 240/ 12/ 14 1015.8S 4/ 6 2/ 70/ 8 BUOY 41010 2110 87 87 260/ 2/ 4 1017.2 ST AUGUSTINE FL 2100 83 84 190/ 15/ 18 1017.1F $$

USA.gov is the U.S. government's official web portal to all federal, state and local government web resources and services.